Home   Weather   Yokohama   Past weeks

Flag for Japan Past Weather in Yokohama, Japan — Yesterday and Last 2 Weeks

Now
61 °F

Passing clouds.


Feels Like: 61 °F
Forecast: 52 / 63 °F
Wind: 20 mph from Southeast

Location: Tokyo International Airport

Current Time: Apr 23, 2017 at 5:06:29 pm

Latest Report: Apr 23, 2017 at 4:00 pm


Visibility: N/A

Pressure: 30.01 "Hg

Humidity: 55%

Dew Point: 45 °F

Location of YokohamaLocation

Past Weather in Yokohama — Graph

°F

Yokohama Temperature Yesterday

Maximum temperature yesterday: 64 °F (at 1:30 pm)
Minimum temperature yesterday: 52 °F (at 11:00 pm)
Average temperature yesterday: 59 °F

High & Low Weather Summary for the Past Weeks

 TemperatureHumidityPressure
High79 °F (Apr 19, 2:00 pm)100% (Apr 8, 3:00 pm)30.15 "Hg (Apr 8, 3:00 pm)
Low46 °F (Apr 11, 8:00 am)17% (Apr 19, 5:00 pm)29.18 "Hg (Apr 18, 12:13 pm)
Average60 °F68%29.77 "Hg
* Reported Apr 8 3:00 pm — Apr 23 3:30 pm, Yokohama, Weather by CustomWeather, © 2017

Note: Actual official high and low records may vary slightly from our data, if they occured in-between our weather recording intervals... More about our weather records

Advertising

Yokohama Weather History for the Previous 24 Hours

Scroll right to see more
 ConditionsComfort  
Time TempWeatherWind HumidityBarometerVisibility
3:30 pm
Sun, Apr 23
63 °FPassing clouds.17 mph52%29.98 "HgN/A
3:00 pm64 °FPassing clouds.12 mph40%29.98 "HgN/A
2:30 pm64 °FPassing clouds.15 mph43%29.98 "HgN/A
2:00 pm64 °FPassing clouds.14 mph46%29.98 "HgN/A
1:30 pm63 °FPassing clouds.14 mph45%29.98 "HgN/A
1:00 pm63 °FPassing clouds.12 mph42%29.98 "HgN/A
12:30 pm63 °FPassing clouds.12 mph39%29.98 "HgN/A
12:00 pm63 °FPassing clouds.12 mph42%29.98 "HgN/A
11:30 am61 °FPassing clouds.9 mph39%29.98 "HgN/A
11:00 am61 °FPassing clouds.5 mph42%30.01 "HgN/A
10:30 am59 °FPassing clouds.7 mph45%30.01 "HgN/A
10:00 am59 °FPassing clouds.12 mph42%30.01 "HgN/A
9:30 am59 °FPassing clouds.10 mph45%30.01 "HgN/A
9:00 am57 °FPassing clouds.12 mph59%29.98 "HgN/A
8:30 am57 °FPassing clouds.10 mph59%29.98 "HgN/A
8:00 am55 °FScattered clouds.10 mph59%29.98 "HgN/A
7:30 am55 °FScattered clouds.3 mph59%29.98 "HgN/A
7:00 am54 °FPartly sunny.8 mph58%29.98 "HgN/A
6:30 am54 °FPartly sunny.8 mph67%29.95 "HgN/A
6:00 am54 °FPartly sunny.8 mph67%29.95 "HgN/A
5:30 am52 °FPartly sunny.8 mph72%29.92 "HgN/A
5:00 am52 °FPartly sunny.8 mph72%29.92 "HgN/A
4:30 am52 °FPassing clouds.10 mph77%29.92 "HgN/A
3:30 am52 °FPassing clouds.13 mph77%29.89 "HgN/A
3:00 am52 °FPassing clouds.12 mph77%29.89 "HgN/A
2:30 am54 °FPassing clouds.3 mph63%29.89 "HgN/A
2:00 am52 °FPassing clouds.8 mph77%29.89 "HgN/A
1:30 am52 °FLight rain. Partly cloudy.9 mph82%29.89 "HgN/A
1:00 am54 °FScattered showers. Passing clouds.13 mph77%29.89 "HgN/A
12:30 am52 °FPartly cloudy.13 mph82%29.89 "HgN/A
12:00 am52 °FLight rain. Passing clouds.14 mph82%29.89 "HgN/A
11:30 pm
Sat, Apr 22
52 °FLight rain. Passing clouds.15 mph82%29.89 "HgN/A
11:00 pm52 °FSprinkles. Passing clouds.17 mph88%29.89 "HgN/A
10:30 pm54 °FSprinkles. Partly cloudy.16 mph88%29.89 "Hg5 mi
10:00 pm54 °FSprinkles. Partly cloudy.22 mph82%29.86 "Hg6 mi
9:30 pm54 °FRain showers. Partly cloudy.18 mph94%29.86 "Hg4 mi
9:00 pm55 °FSprinkles. Partly cloudy.16 mph88%29.83 "Hg4 mi
8:30 pm57 °FSprinkles. Partly cloudy.13 mph82%29.83 "HgN/A
8:00 pm55 °FSprinkles. Partly cloudy.9 mph82%29.83 "HgN/A
7:30 pm57 °FSprinkles. Partly cloudy.13 mph82%29.80 "HgN/A
7:00 pm57 °FSprinkles. Partly cloudy.14 mph82%29.77 "HgN/A
6:30 pm57 °FSprinkles. Partly cloudy.10 mph82%29.77 "Hg5 mi
6:00 pm59 °FSprinkles. Broken clouds.9 mph77%29.77 "Hg4 mi
5:30 pm61 °FScattered showers. Partly sunny.14 mph68%29.74 "HgN/A
5:00 pm61 °FPartly sunny.14 mph68%29.71 "HgN/A
Weather by CustomWeather, © 2017

See weather overviewHow to use our weather pages